GFSSW_con_mucape_219.txt.gz
CAPE
26 20 29 46 44 47 43 44 45 44 45 37 35 39 54 27 12 2 8 0 0 0 0 0 7 165 172 141 110 74 1 0 0 0 0 0 0 0 0 0 0 0 0 0 4
22 41 45 31 28 65 55 46 40 41 42 42 39 37 40 59 4 2 0 0 0 0 0 0 5 83 211 145 179 51 0 0 0 0 1 0 0 0 0 0 0 0 0 0 7
26 63 57 55 61 57 48 43 44 49 52 35 46 51 58 44 8 0 0 14 256 37 5 0 18 44 160 177 167 22 1 0 0 3 10 31 0 0 0 0 0 0 0 1 2
48 58 53 64 65 62 71 59 47 48 57 61 49 58 64 41 0 0 158 35 65 105 6 109 140 32 135 84 111 30 10 0 0 8 0 0 0 0 0 0 0 0 0 1 2
58 51 40 51 50 43 40 49 58 62 57 66 72 73 39 0 0 0 2 2 57 242 54 172 193 133 76 183 148 128 16 5 1 6 20 6 0 0 0 0 0 0 2 0 1
55 46 55 48 49 41 33 41 32 25 27 44 52 71 4 0 0 0 0 0 0 79 191 180 79 159 234 155 148 67 50 106 52 0 14 17 5 0 0 0 0 0 1 1 1
47 53 55 47 48 34 32 28 19 16 20 33 77 43 0 0 0 0 0 0 3 0 12 115 136 174 164 131 96 86 105 79 64 17 1 15 13 0 0 0 0 0 0 2 0
50 55 47 27 22 34 22 13 11 5 8 42 56 41 0 8 0 0 0 0 0 1 1 7 70 108 122 93 98 84 72 25 11 17 0 0 0 0 0 0 0 0 0 0 0
40 50 44 22 25 24 17 13 1 22 24 32 28 48 0 0 0 0 5 0 0 0 5 9 109 58 90 119 68 72 0 0 1 1 10 2 0 0 0 0 0 0 0 0 0
54 36 28 18 12 31 18 0 0 5 0 0 10 18 0 0 9 46 19 26 0 1 5 33 89 99 18 18 0 33 0 0 0 0 0 0 0 0 0 0 0 0 0 0 0
30 23 30 35 39 51 2 0 0 0 0 0 0 15 0 2 20 23 13 9 19 37 0 51 63 0 0 0 0 0 0 0 0 0 0 0 0 0 0 0 0 0 0 0 0
35 46 54 49 59 33 0 2 28 48 0 0 3 0 0 0 0 0 5 0 9 0 16 27 0 0 1 16 24 1 0 0 0 0 0 0 0 1 10 0 0 0 0 0 0
36 36 50 35 21 0 0 11 16 22 0 0 0 16 8 0 0 0 6 0 0 0 0 0 0 17 51 0 0 0 12 0 0 0 18 6 0 4 0 0 0 0 0 0 0
30 33 48 71 0 0 0 2 3 18 0 0 0 5 0 5 0 0 1 8 53 0 0 0 1 8 10 0 42 0 0 19 0 0 0 5 0 0 0 0 0 0 0 0 0
25 17 16 36 4 0 0 0 0 3 0 0 0 42 0 1 0 4 0 2 0 69 2 0 0 13 0 0 0 2 21 0 0 0 0 0 0 0 0 0 0 0 0 0 0
15 2 2 0 0 0 0 0 0 0 0 0 0 0 0 0 0 7 1 12 0 0 0 0 0 25 0 11 43 5 0 0 0 0 0 0 0 0 0 0 0 0 0 0 0
1 0 0 3 0 0 0 0 0 0 0 0 0 0 0 0 0 5 0 63 4 0 0 0 5 18 13 0 0 6 0 0 0 0 0 0 0 0 0 0 0 0 0 0 0
0 0 0 0 0 0 0 0 0 0 0 0 0 0 0 0 1 3 0 0 0 0 0 0 2 27 19 0 8 0 0 0 0 0 0 0 0 0 0 0 0 0 0 0 0
0 0 0 0 0 0 0 0 0 0 0 0 0 0 0 0 3 0 0 0 0 0 0 3 0 0 0 0 0 0 0 0 0 0 0 0 0 0 0 0 0 0 0 0 0
0 0 0 0 0 0 0 0 0 0 1 0 0 0 1 0 12 12 0 3 0 0 0 3 0 5 5 12 37 0 0 0 0 0 0 0 0 0 0 0 0 0 0 0 0
0 0 0 0 0 0 0 0 0 0 0 1 0 0 1 2 2 0 0 2 13 0 0 0 0 0 9 16 0 0 0 0 0 0 0 0 0 0 0 0 0 0 0 0 0
0 0 0 0 0 0 0 0 0 0 0 0 0 0 0 0 0 0 4 0 0 8 0 0 0 0 0 0 4 19 0 0 0 0 0 0 0 0 0 0 0 0 0 0 0
0 0 0 0 0 0 0 0 0 0 0 0 0 0 0 0 0 0 0 0 0 0 1 0 0 2 0 2 1 8 2 1 0 0 0 0 0 0 0 0 0 0 0 0 0
0 0 0 0 0 0 0 0 0 0 0 0 1 2 0 0 0 0 0 0 0 1 47 0 0 0 0 0 0 0 0 2 3 0 0 0 0 0 0 0 0 0 0 0 0
0 0 0 0 0 0 0 0 0 0 0 0 0 0 0 0 0 0 0 0 0 0 0 0 0 0 1 1 0 3 0 0 0 0 0 0 0 0 0 0 0 0 0 0 0
0 0 0 0 0 0 0 0 0 0 0 0 0 0 0 0 0 0 0 0 0 0 1 6 2 0 0 0 0 0 0 3 2 0 0 0 0 9 4 0 0 0 0 0 0
0 0 0 0 0 0 0 0 0 0 0 0 0 0 0 0 0 0 0 0 0 1 0 1 0 0 0 0 0 0 0 0 0 9 2 0 0 5 6 6 0 0 0 0 0

GFSSW_con_mucape_222.txt.gz
CAPE
19 39 56 51 34 39 47 58 50 45 36 36 37 39 33 28 25 5 0 0 0 0 16 0 0 62 205 236 176 144 34 0 0 0 0 0 0 0 0 0 0 0 0 0 126
20 45 49 51 57 61 65 63 70 52 43 42 45 34 44 47 24 1 0 0 1 20 1 5 0 64 238 288 205 118 29 2 0 0 0 0 0 0 0 0 0 0 0 1 0
29 57 50 29 42 40 47 38 37 45 44 47 57 60 55 36 0 0 34 0 17 25 4 25 5 83 164 173 176 96 8 2 0 0 0 0 9 3 0 0 0 0 1 8 0
40 49 41 43 43 44 42 32 31 30 44 58 76 67 55 29 0 14 51 10 3 8 77 83 111 57 59 99 142 106 27 15 0 0 0 0 0 0 0 0 0 0 4 95 2
43 37 45 47 38 36 30 23 25 31 35 47 61 44 42 0 0 0 21 24 24 3 42 43 127 28 11 10 135 131 72 46 23 21 5 0 0 0 0 0 0 0 18 81 0
35 38 46 41 28 18 21 29 25 20 16 39 58 50 2 0 0 0 0 4 13 19 16 72 97 77 119 7 91 76 86 71 63 23 28 9 8 0 0 0 5 9 26 21 5
41 28 29 34 24 25 30 27 16 8 6 45 37 48 0 0 0 0 0 0 13 10 52 12 66 164 68 152 86 105 99 91 62 56 18 9 0 0 0 0 20 31 19 25 71
32 43 30 19 25 35 28 19 8 0 5 14 75 58 0 0 0 0 0 0 1 1 5 78 79 59 44 86 105 137 100 36 31 38 32 3 0 0 1 0 21 151 177 285 108
38 33 20 14 41 67 52 11 0 0 0 9 25 51 0 0 0 12 0 3 0 7 0 51 66 87 70 87 25 95 0 0 0 32 33 2 0 0 0 0 0 60 162 193 108
16 23 41 47 54 58 30 0 0 0 0 0 12 7 0 0 0 21 14 22 16 0 3 0 46 53 4 0 0 0 0 1 0 10 22 0 0 0 2 1 0 1 49 101 49
47 38 37 42 45 40 0 0 0 0 0 0 0 2 0 0 0 0 10 27 38 25 0 7 16 35 0 0 0 0 0 0 0 0 24 0 0 0 0 9 9 0 10 15 54
26 30 43 35 28 4 0 2 8 26 0 0 4 13 0 0 0 0 0 5 0 0 0 0 0 0 10 1 0 0 0 0 0 6 49 1 0 6 19 1 0 2 4 0 6
26 35 33 22 1 0 0 3 15 24 0 0 0 6 0 0 0 0 0 0 0 0 0 0 0 0 6 1 0 0 0 0 0 1 42 37 4 18 20 7 0 0 5 4 3
20 24 16 28 0 0 0 0 6 25 0 0 0 1 0 0 0 0 0 0 0 0 0 0 4 6 0 0 4 0 0 0 0 0 0 0 0 0 0 0 0 0 0 0 0
10 10 7 5 0 0 0 0 0 13 0 0 0 8 0 0 0 0 2 0 0 0 0 0 0 0 0 0 1 1 0 0 0 0 0 0 0 0 0 0 0 0 0 0 0
13 3 0 0 0 0 0 0 0 0 0 0 0 0 0 0 0 0 0 1 1 38 41 0 6 4 0 3 10 8 4 0 0 0 0 0 0 0 0 0 0 0 0 0 0
2 0 0 0 0 0 0 0 0 0 0 0 0 0 0 0 0 0 3 16 0 0 0 0 0 0 12 2 4 14 0 0 0 0 0 0 0 0 0 0 0 0 0 0 0
0 0 0 0 0 0 0 0 0 0 0 0 0 0 0 0 0 0 0 0 0 5 0 0 0 0 1 0 0 0 0 0 0 0 0 0 0 0 0 0 0 0 0 0 0
0 0 0 0 0 0 0 0 0 0 0 0 0 0 4 0 1 1 0 11 0 7 0 1 0 0 0 3 3 0 29 0 0 0 0 0 0 0 0 0 0 0 0 0 0
0 0 0 0 0 0 0 0 0 0 0 0 0 0 5 0 0 0 0 11 11 0 0 0 0 0 19 0 1 0 0 0 0 0 0 0 0 0 0 0 0 0 0 0 0
0 0 0 0 0 0 0 0 0 0 0 0 0 0 0 0 0 2 0 0 0 4 0 1 1 0 29 4 0 0 0 0 0 0 0 0 0 0 0 0 0 0 0 0 0
0 0 0 0 0 0 0 0 0 0 0 0 0 0 0 0 0 0 0 0 0 6 0 0 6 2 0 0 0 0 0 0 0 0 0 0 0 0 0 0 0 0 0 0 0
0 0 0 0 0 0 0 0 0 0 0 0 0 0 0 0 0 0 0 0 0 0 1 0 1 6 0 0 13 0 0 0 0 0 0 0 0 0 0 0 0 0 0 0 0
0 0 0 0 0 0 0 0 0 0 0 0 0 0 0 0 0 0 0 0 0 0 2 0 0 0 0 0 0 0 0 0 0 0 0 0 0 0 0 0 0 0 0 0 0
0 0 0 0 0 0 0 0 0 0 0 0 0 0 0 0 0 0 0 0 0 0 0 0 0 1 0 0 0 0 7 2 3 0 0 0 0 0 0 0 0 0 0 0 0
0 0 0 0 0 0 0 0 0 0 0 0 0 0 0 0 0 0 0 0 0 0 0 0 0 1 0 0 0 0 3 23 17 0 0 0 0 0 0 0 0 0 0 0 0
0 0 0 0 0 0 0 0 0 0 0 0 0 0 0 0 0 0 0 0 0 0 0 0 0 0 1 0 0 0 0 0 0 0 0 0 0 0 4 0 0 0 0 0 0

GFSSW_con_mucape_225.txt.gz
CAPE
11 33 70 45 39 49 47 45 38 51 63 58 40 27 40 38 45 3 0 0 0 0 28 6 0 8 117 201 261 154 48 16 0 0 0 0 0 0 0 0 0 0 0 0 165
31 32 48 36 31 39 49 48 38 35 38 47 58 59 70 56 10 0 0 0 4 8 5 7 0 0 134 151 275 145 56 9 0 0 0 0 1 0 0 0 0 0 0 7 278
42 39 41 44 52 54 52 54 31 33 40 51 52 49 52 40 0 0 58 31 43 28 11 13 15 34 45 176 129 124 28 8 4 3 0 3 1 0 0 0 0 0 0 77 376
23 23 30 41 51 52 53 31 32 35 35 47 53 37 36 34 0 9 27 1 3 6 2 2 45 24 8 82 85 74 53 43 17 50 12 1 0 0 0 0 0 0 0 191 373
13 29 26 36 48 55 31 26 28 28 28 50 33 54 37 0 0 8 43 16 16 8 3 59 89 53 5 10 106 56 32 78 46 45 58 22 0 0 0 0 0 0 22 90 476
18 24 43 40 28 36 43 39 30 15 21 46 36 52 66 0 0 0 5 37 44 20 9 46 65 55 34 2 20 78 66 81 87 33 55 26 6 0 0 0 2 67 90 47 374
36 42 33 23 25 46 49 40 21 4 14 14 51 26 12 0 0 0 0 0 18 14 11 10 17 33 48 124 0 40 69 104 69 70 46 57 23 0 0 28 30 62 121 83 302
20 21 23 34 46 35 34 16 4 0 5 2 30 47 0 0 0 0 0 0 0 0 25 19 23 4 6 33 106 5 71 36 42 63 61 76 0 1 0 43 37 61 123 164 195
52 43 35 30 31 35 23 1 0 0 0 0 0 24 0 0 2 0 2 1 5 0 12 45 24 3 54 104 53 109 0 0 11 42 83 51 2 0 0 2 43 93 170 294 91
17 23 27 30 31 33 2 0 0 0 0 0 0 0 0 0 0 9 26 27 28 24 8 14 32 4 27 54 0 0 0 13 0 17 56 47 0 0 0 0 16 93 172 248 158
22 23 30 21 19 18 0 0 0 0 0 0 0 0 0 0 0 0 0 0 0 19 0 6 0 5 1 7 0 0 0 0 2 3 62 32 0 7 0 0 8 11 103 207 187
19 20 20 9 13 0 0 0 5 8 0 0 0 0 0 0 0 0 0 0 0 0 0 0 0 0 3 1 12 0 0 0 16 10 78 0 0 12 2 0 0 4 18 116 155
20 12 11 6 3 0 0 0 12 17 0 0 0 0 0 0 0 0 0 0 0 0 0 0 0 0 6 11 32 0 0 0 0 25 0 0 0 0 22 22 26 1 1 4 68
19 14 15 3 0 0 0 0 0 15 0 0 0 0 0 0 0 0 0 0 0 0 0 0 0 0 2 1 0 0 0 0 0 0 0 0 0 0 1 5 9 0 2 0 0
21 14 3 0 0 0 0 0 0 4 0 0 0 0 0 0 0 1 0 0 0 0 0 0 0 0 0 0 8 2 0 0 1 0 0 0 0 0 0 0 0 0 0 1 0
18 3 0 0 0 0 0 0 0 0 0 0 0 0 0 0 0 0 0 0 0 0 0 0 11 23 0 12 0 28 15 9 34 0 0 0 0 0 0 0 0 0 0 0 3
3 0 0 0 0 0 0 0 0 0 0 0 0 0 0 0 0 0 0 10 0 0 0 0 0 19 29 0 14 47 0 0 0 0 0 0 0 0 0 0 0 0 0 0 0
0 0 0 0 0 0 0 0 0 0 0 0 0 0 0 0 0 0 0 2 2 0 0 0 0 0 24 0 0 0 0 0 0 0 0 0 0 0 0 0 0 0 2 8 12
0 0 0 0 0 0 0 0 0 0 0 0 0 0 0 0 0 0 0 6 5 1 0 0 0 0 2 21 5 0 0 0 6 0 0 0 0 0 0 0 0 0 0 0 0
0 0 0 0 0 0 0 0 0 0 0 0 0 0 0 0 0 0 0 0 1 3 2 6 0 0 0 32 2 4 3 0 0 0 0 0 0 0 0 0 0 0 0 0 0
0 0 0 0 0 0 0 0 0 0 0 0 0 0 0 0 0 0 0 0 0 0 0 1 6 0 24 0 0 10 3 11 0 0 0 0 0 0 0 0 0 0 0 0 0
0 0 0 0 0 0 0 0 0 0 0 0 0 0 0 0 0 0 0 0 0 0 0 0 4 0 0 21 1 19 3 0 0 0 0 0 0 0 0 0 0 0 0 0 0
0 0 0 0 0 0 0 0 0 0 0 0 0 7 0 0 0 0 0 0 0 0 4 2 1 4 0 17 24 9 8 5 0 0 0 0 0 0 0 0 0 0 0 0 0
0 0 0 0 0 0 0 0 0 0 0 0 0 0 0 0 0 0 0 0 0 0 0 3 1 0 0 0 0 0 6 3 0 0 0 0 0 0 0 0 0 0 0 0 0
0 0 0 0 0 0 0 0 0 0 0 0 0 0 0 0 0 0 0 0 0 0 0 0 0 3 1 2 1 10 1 1 0 0 0 0 0 0 0 0 0 0 0 0 0
0 0 0 0 0 0 0 0 0 0 0 0 0 0 0 0 0 0 0 0 0 0 0 0 0 0 0 0 8 7 0 0 0 0 0 0 0 0 0 0 0 0 0 0 0
0 0 0 0 0 0 0 0 0 0 0 0 0 0 0 0 0 0 0 0 0 0 0 0 0 0 0 5 5 0 12 4 0 30 9 0 1 0 0 0 0 0 0 0 0

GFSSW_con_mucape_228.txt.gz
CAPE
42 29 45 44 42 39 51 46 23 25 28 32 35 39 59 69 73 22 0 0 0 0 6 0 14 4 27 164 212 139 90 22 15 20 35 2 0 0 0 0 0 0 0 0 364
30 38 25 29 34 40 33 26 19 19 28 36 45 50 51 54 30 4 0 60 33 14 16 32 13 23 102 110 241 199 56 16 5 46 26 15 0 0 0 0 0 0 0 206 325
20 22 28 28 39 45 41 22 21 26 39 50 48 44 53 56 0 0 31 9 6 10 21 23 17 23 34 87 182 126 43 56 7 47 40 8 0 0 0 0 0 0 18 259 378
16 18 23 41 38 22 22 28 33 38 57 70 45 48 70 56 0 0 46 12 3 9 5 11 13 22 11 16 118 93 54 43 70 25 16 4 2 0 0 0 0 0 122 312 398
16 44 44 39 32 19 31 48 35 40 68 60 41 40 51 0 0 0 20 8 4 4 4 12 18 17 0 10 81 150 68 51 104 32 23 43 30 19 0 0 0 0 145 441 439
19 21 19 26 39 45 33 30 25 14 34 20 18 48 53 0 0 0 6 12 9 8 4 7 32 21 23 15 33 43 143 93 93 78 45 70 73 7 5 0 0 0 83 426 484
39 55 45 31 23 25 26 25 7 4 15 9 23 53 36 0 0 0 0 5 2 1 0 7 18 30 48 32 20 100 127 124 49 75 47 65 92 9 11 73 55 31 92 301 389
10 24 24 27 29 27 21 3 0 0 1 0 0 3 0 0 7 1 2 1 0 0 21 30 17 12 24 56 157 52 132 124 11 45 58 83 43 61 28 115 120 178 194 200 368
26 23 19 21 15 17 7 0 0 0 0 0 0 8 0 0 0 6 20 19 8 5 0 5 1 14 35 63 136 127 1 10 35 55 34 2 5 42 39 114 130 177 187 186 200
22 17 13 17 15 13 0 0 0 0 0 0 0 0 0 0 0 3 0 8 31 29 13 0 2 4 14 53 0 39 24 0 0 10 80 31 0 0 6 64 141 207 185 176 205
12 19 6 12 14 4 0 0 0 0 0 0 0 0 0 0 0 0 0 0 49 30 0 0 0 0 0 47 9 38 4 0 2 14 113 53 0 40 12 7 50 185 193 144 124
15 22 11 6 11 0 0 0 2 7 0 0 0 0 0 0 0 0 0 0 0 0 0 0 0 0 0 9 35 81 50 49 32 77 123 50 56 16 57 30 13 6 180 177 107
25 21 8 1 0 0 0 0 8 15 0 0 0 0 0 0 0 0 0 0 5 7 0 0 0 2 0 0 0 71 42 53 45 63 94 65 0 0 64 7 7 0 1 136 90
18 12 4 0 0 0 0 0 0 16 0 0 0 0 0 0 0 0 0 0 0 3 15 0 0 0 0 5 0 0 6 44 0 102 28 64 0 0 3 2 0 0 1 8 116
6 5 2 0 0 0 0 0 0 0 0 0 0 0 0 0 0 0 14 0 0 0 0 0 0 0 0 5 21 18 0 37 48 58 0 0 0 0 0 0 0 0 0 6 2
5 1 0 0 0 0 0 0 0 0 0 0 0 0 0 0 0 0 0 0 0 0 0 7 16 17 0 3 0 0 0 0 0 0 63 0 0 0 0 0 0 0 0 1 4
2 0 0 0 0 0 0 0 0 0 0 0 0 0 0 0 0 0 0 0 0 0 0 0 0 8 31 0 0 0 58 0 0 66 0 0 0 0 0 0 5 3 0 1 3
0 0 0 0 0 0 0 0 0 0 0 0 0 0 0 0 0 0 0 0 0 0 0 0 0 0 1 0 0 0 0 0 0 0 0 0 0 0 0 0 0 24 31 38 1
0 0 0 0 0 0 0 0 0 0 0 0 0 0 0 0 0 0 0 0 47 4 0 1 0 0 0 22 47 6 0 0 0 0 0 0 0 0 0 0 0 0 9 0 20
0 0 0 0 0 0 0 0 0 0 0 0 0 0 0 0 0 0 0 0 0 0 0 33 46 0 0 40 48 19 8 0 17 0 0 0 0 0 0 0 0 0 0 0 0
0 0 0 0 0 0 0 0 0 0 0 0 0 0 0 0 0 0 0 0 0 0 0 0 0 30 0 7 0 1 4 51 14 0 0 0 0 0 0 0 0 0 0 0 0
0 0 0 0 0 0 0 0 0 0 0 0 15 0 0 0 0 0 0 0 0 0 0 0 23 28 0 0 5 11 0 34 0 0 2 0 0 0 0 0 0 0 0 0 0
0 0 0 0 0 0 0 0 0 0 0 0 0 9 0 0 0 0 0 0 0 0 0 0 15 38 19 47 27 3 2 10 1 0 3 0 0 0 0 0 0 0 0 0 0
0 0 0 0 0 0 0 0 0 0 0 0 0 0 0 0 0 0 0 0 0 0 0 1 6 0 0 11 61 4 6 3 14 0 0 0 0 0 0 0 0 0 0 0 0
0 0 0 0 0 0 0 0 0 0 0 0 0 0 0 0 0 0 0 0 0 0 0 0 3 0 0 0 3 30 18 7 0 2 0 0 0 0 0 0 0 0 0 0 0
0 0 0 0 0 0 0 0 0 0 0 0 0 0 0 0 0 0 0 0 0 0 0 0 0 0 3 0 2 11 18 11 0 0 0 4 2 0 0 0 0 0 0 0 0
0 0 0 0 0 0 0 0 0 0 0 0 0 0 0 0 0 0 0 0 0 0 0 0 1 0 1 1 7 9 0 0 0 0 0 0 0 0 0 0 0 0 0 0 0

GFSSW_con_mucape_231.txt.gz
CAPE
16 12 15 27 21 29 33 26 27 21 27 38 43 48 52 54 59 8 5 24 43 13 1 1 11 23 199 303 352 191 243 120 45 67 67 61 24 0 0 0 0 0 0 122 607
17 13 13 18 24 16 15 21 24 25 40 46 57 67 67 70 40 7 0 90 79 83 1 17 13 30 79 208 285 299 71 9 16 110 99 48 19 0 0 0 0 0 0 568 382
9 18 31 32 36 36 23 15 19 42 61 66 74 68 61 74 0 0 46 21 16 12 20 10 18 46 27 99 58 166 72 6 21 18 33 32 20 3 0 0 0 0 0 502 525
9 14 17 14 17 23 39 42 25 35 52 56 56 59 53 30 0 2 116 46 17 7 2 8 19 34 22 14 36 43 40 49 55 85 49 4 65 14 0 0 0 0 0 308 888
17 34 42 36 25 35 35 29 21 33 40 37 34 32 50 0 0 3 24 1 9 11 5 4 19 28 19 8 31 83 23 18 42 64 17 72 27 10 0 0 0 0 21 212 973
30 13 11 15 24 29 31 21 9 16 20 14 22 33 30 0 8 1 1 6 3 3 0 2 20 28 48 15 32 17 38 68 83 11 32 27 41 36 20 0 0 0 131 359 1044
10 14 14 14 21 24 14 9 1 5 0 2 6 21 25 2 6 10 1 6 2 0 3 7 9 13 25 29 15 39 39 65 41 96 107 48 5 66 60 7 18 6 20 341 755
16 14 11 12 19 19 7 0 0 0 0 0 0 2 2 0 1 24 25 27 23 9 0 3 0 11 9 49 50 2 82 111 32 133 95 24 2 33 71 108 74 39 29 262 820
9 10 17 16 16 13 2 0 0 0 0 0 0 9 17 2 1 0 0 37 40 54 13 7 0 0 14 84 109 67 1 31 35 37 112 61 0 0 55 99 123 158 177 242 738
12 10 17 19 12 10 0 0 0 0 0 0 0 0 11 5 3 0 0 0 16 58 35 3 0 0 2 79 0 29 35 1 0 52 138 63 0 1 22 110 136 182 269 277 452
16 21 19 10 6 1 0 0 0 0 0 0 0 0 0 0 0 0 0 0 17 45 0 35 0 0 1 0 64 61 61 0 0 27 135 78 7 0 3 7 138 136 275 215 243
12 13 12 2 2 0 0 0 1 4 0 0 0 0 0 0 0 5 0 9 14 10 35 0 0 6 0 13 2 49 63 8 16 7 93 68 49 54 0 11 19 65 275 250 263
10 7 4 0 0 0 0 0 9 18 0 0 0 0 0 0 0 0 1 17 19 28 28 0 0 1 0 0 23 84 41 61 40 22 90 49 66 80 29 0 15 20 241 241 215
8 7 5 0 0 0 0 0 3 22 0 0 0 1 0 0 0 0 10 0 24 22 28 21 12 0 0 0 0 4 22 37 67 38 126 55 0 11 34 31 6 0 90 216 126
8 5 5 0 0 0 0 0 0 16 0 0 0 0 0 4 0 23 28 26 0 29 16 1 0 0 0 0 0 0 10 2 28 11 108 55 20 0 14 0 0 1 0 29 179
2 2 0 0 1 0 0 0 1 0 0 0 0 0 0 4 0 0 19 13 18 14 18 15 10 33 0 0 0 0 0 0 67 73 101 152 3 0 9 0 0 2 25 4 56
0 0 0 0 0 0 0 0 0 0 0 0 0 0 0 0 0 0 0 0 0 3 38 29 18 1 9 0 0 0 0 47 45 74 64 37 48 16 2 8 0 10 1 5 18
0 0 0 0 0 0 0 0 0 0 0 0 0 0 0 0 0 0 0 38 175 31 0 28 0 0 0 0 0 1 9 21 27 4 33 17 105 0 0 0 0 0 4 45 27
0 0 0 0 0 0 0 0 0 0 0 0 0 0 0 0 0 0 0 0 93 0 0 0 3 2 0 0 0 4 0 0 0 0 64 16 0 2 0 0 0 0 21 33 50
0 0 0 0 0 0 16 0 0 0 0 0 0 0 0 0 0 0 0 0 0 0 0 2 0 14 0 5 7 0 0 0 0 51 0 0 0 17 0 0 0 0 0 12 66
0 0 0 0 0 6 0 0 0 0 0 0 0 0 0 0 0 0 0 0 0 0 0 0 92 37 0 1 1 2 0 0 0 0 31 19 0 4 0 0 0 0 0 3 0
0 0 0 0 0 0 0 0 0 0 0 0 0 0 0 0 0 0 0 0 0 0 0 0 3 118 8 0 3 46 0 0 0 0 0 12 14 0 0 0 0 0 0 1 0
0 0 0 0 0 0 0 0 0 0 0 0 0 2 0 0 0 0 0 0 0 0 0 0 0 105 41 9 2 1 44 42 11 0 0 0 0 0 0 0 0 0 0 0 0
0 0 0 0 0 0 0 0 0 0 0 0 0 3 0 0 0 0 0 0 0 0 0 0 0 0 7 30 62 53 54 18 36 0 0 1 0 0 0 0 0 0 0 0 0
0 0 0 0 0 0 0 0 0 0 0 0 0 0 0 0 0 0 0 0 0 0 0 0 0 0 0 6 3 21 0 0 1 21 31 0 3 0 0 0 0 0 0 0 0
0 0 0 0 0 0 0 0 0 0 0 0 0 0 0 0 0 0 0 0 0 0 0 0 0 0 3 0 19 3 2 0 0 0 0 0 0 0 0 0 0 0 0 0 0
0 0 0 0 0 0 0 0 0 0 0 0 0 0 0 0 0 0 0 0 0 0 0 0 0 0 1 1 74 10 22 5 0 0 0 0 0 0 0 0 0 0 0 0 0

GFSSW_con_mucape_234.txt.gz
CAPE
9 10 14 22 24 32 37 31 17 23 38 56 68 72 57 61 60 1 0 2 54 75 43 13 0 6 11 94 216 206 118 57 2 2 0 111 48 0 6 0 0 0 269 343 854
9 10 17 24 20 18 23 26 32 41 45 56 65 62 76 57 0 0 0 40 73 34 46 21 0 4 9 78 129 153 53 0 22 6 52 85 42 1 6 3 0 0 724 614 797
12 19 31 47 45 34 32 19 18 31 43 51 55 51 49 20 0 19 58 60 23 5 27 10 7 30 19 49 89 95 9 4 9 25 58 98 32 26 0 0 0 0 806 711 697
16 29 17 15 20 25 28 25 19 31 43 43 36 36 39 19 0 4 48 106 65 23 10 4 7 2 3 31 15 63 48 30 39 9 16 3 24 0 11 0 0 0 598 533 754
9 14 16 16 16 17 16 11 12 26 26 19 23 31 30 0 0 0 26 1 0 18 8 0 7 18 15 14 13 14 30 53 1 26 16 28 8 14 21 6 0 0 379 411 628
9 20 15 15 12 7 10 11 9 14 8 9 9 17 28 0 13 7 1 3 0 3 13 5 3 10 5 8 16 1 32 27 7 10 35 14 18 22 1 20 1 0 209 391 614
14 13 11 16 17 7 7 5 3 3 0 0 0 0 20 0 0 0 3 9 1 0 0 8 10 2 12 14 2 3 13 29 17 12 43 76 0 0 2 13 0 0 312 508 807
9 11 16 13 20 9 3 0 0 0 0 0 0 0 0 0 0 0 0 6 23 31 9 1 0 0 1 11 3 5 12 3 2 23 71 44 0 0 32 14 21 0 368 616 879
12 15 13 16 17 5 0 0 0 0 0 0 0 0 5 4 2 0 0 0 3 20 37 14 0 0 3 0 0 46 2 0 0 0 93 14 0 1 6 22 41 42 126 645 787
9 10 8 8 5 1 0 0 0 0 0 0 0 0 7 0 0 0 0 0 0 6 28 4 18 0 0 31 0 8 3 0 0 0 51 48 0 1 4 0 33 9 84 518 726
7 6 5 3 2 0 0 0 0 0 0 0 0 0 0 0 0 0 0 0 0 5 13 19 0 0 0 0 21 0 7 4 0 0 20 17 2 0 13 14 8 14 111 532 445
5 5 4 1 0 0 4 0 0 1 0 0 0 0 0 0 0 0 0 3 17 10 12 27 0 6 0 0 6 10 6 0 33 6 11 46 46 33 23 1 1 5 75 390 256
4 5 4 0 0 0 0 0 1 7 0 0 0 0 0 0 0 0 0 8 9 9 5 0 0 1 0 0 90 3 0 0 3 16 4 63 25 54 10 0 0 0 4 42 171
3 3 7 0 0 0 0 0 0 11 0 0 0 0 0 0 0 0 3 6 6 1 6 17 20 2 0 0 6 0 0 0 22 6 0 17 0 14 8 0 0 0 8 40 103
1 1 0 0 0 0 0 0 0 3 0 0 0 0 0 0 0 8 11 9 14 11 5 0 9 1 0 0 0 0 1 11 7 13 20 13 6 0 9 16 0 0 0 0 103
0 0 0 0 0 0 0 0 0 0 0 0 0 0 0 0 1 0 0 6 0 0 0 0 0 0 0 0 0 0 0 2 0 0 0 10 0 0 1 0 0 0 0 0 76
0 0 0 0 0 0 0 0 0 0 0 0 0 0 0 0 0 0 0 10 0 0 0 2 0 0 0 0 0 0 0 0 0 0 0 3 0 0 0 0 0 0 0 0 147
0 0 0 0 0 0 0 0 0 0 0 0 0 0 0 0 0 0 0 9 19 0 0 0 1 0 0 0 0 0 0 0 0 0 0 3 0 0 0 0 0 0 0 10 55
0 0 0 0 0 0 0 0 0 0 0 0 0 0 0 0 0 0 0 0 0 0 0 0 0 0 4 0 0 0 0 0 8 0 0 0 1 21 1 0 0 0 0 4 0
0 0 0 0 0 0 3 0 0 0 0 0 0 0 0 0 0 0 0 0 0 0 0 0 1 8 9 6 4 4 3 0 16 0 0 0 0 0 0 0 0 1 0 18 3
0 0 0 0 0 0 0 0 0 0 0 0 0 0 0 0 0 0 0 0 0 0 0 0 0 6 7 0 0 0 0 3 9 51 11 0 4 0 6 0 0 0 0 11 15
0 0 0 0 0 0 0 0 0 0 0 0 0 0 0 0 0 0 0 0 0 0 0 0 0 0 0 1 6 2 0 0 2 21 24 0 0 1 1 0 0 0 12 16 30
0 0 0 0 0 0 0 0 0 0 0 0 0 0 0 0 0 0 0 0 0 0 0 0 0 0 7 0 8 0 0 2 0 0 3 1 0 0 0 0 0 0 0 23 138
0 0 0 0 0 0 0 0 0 0 0 0 0 0 0 0 0 0 0 0 0 0 0 0 0 0 0 0 1 0 0 0 0 0 0 22 1 2 0 0 0 0 0 17 40
0 0 0 0 0 0 0 0 0 0 0 0 0 0 0 0 0 0 0 0 0 0 0 0 0 0 0 0 0 0 0 0 0 0 0 0 0 0 0 3 0 0 0 9 32
0 0 0 0 0 0 0 0 0 0 0 0 0 0 0 0 0 0 0 0 0 0 0 0 0 0 0 0 0 0 22 33 0 0 0 0 0 0 0 0 0 0 0 0 0
0 0 0 0 0 0 0 0 0 0 0 0 0 0 0 0 0 0 0 0 0 0 0 0 0 0 0 0 5 0 23 0 1 21 0 0 0 0 0 0 0 0 0 0 0

GFSSW_con_mucape_240.txt.gz
CAPE
9 10 9 9 9 9 10 14 14 18 20 30 34 38 48 36 36 0 0 20 0 22 36 9 8 15 16 15 73 168 102 16 23 13 0 0 19 59 35 0 36 167 633 1209 1594
8 7 6 9 7 10 11 11 11 16 25 32 35 40 37 39 2 0 21 112 67 67 0 0 0 5 8 19 124 176 53 12 0 0 0 25 31 77 35 7 516 612 642 1396 1412
4 4 7 7 8 8 10 14 15 16 26 33 35 32 30 12 0 19 40 78 117 16 10 13 7 56 41 15 107 63 20 3 14 1 8 1 2 74 48 34 118 547 1217 1249 1311
4 4 6 8 8 9 10 11 11 13 25 29 24 23 19 7 0 0 52 80 36 0 0 11 22 26 41 34 14 53 62 21 12 10 12 67 99 40 34 19 5 303 1243 1096 1048
3 3 6 4 5 5 5 5 7 11 18 20 22 7 10 0 0 0 51 18 0 0 0 2 6 12 30 30 38 30 0 13 27 65 2 5 3 7 12 44 10 96 747 1001 974
3 4 3 4 5 3 3 1 3 7 6 9 7 1 0 0 0 0 0 5 0 1 3 1 2 10 13 8 20 17 10 0 8 24 20 0 0 24 45 6 4 4 56 373 683
2 2 3 2 5 3 0 0 1 0 0 0 0 0 0 0 0 0 0 0 0 8 24 33 10 0 0 15 4 15 13 2 0 1 0 2 0 0 0 5 7 0 0 110 572
3 3 3 3 5 3 0 0 0 0 3 0 0 0 0 0 0 0 0 0 0 27 17 27 29 13 2 0 0 4 29 0 0 0 8 0 0 0 0 0 2 0 0 11 471
2 2 3 3 4 3 0 0 0 0 0 0 0 0 0 0 0 0 0 0 0 45 58 38 24 14 0 0 0 0 0 0 0 0 27 0 0 0 0 0 0 0 0 11 331
2 2 1 3 2 0 0 0 0 0 0 0 0 0 0 0 0 0 0 0 0 24 17 13 1 0 0 0 0 0 0 0 0 0 0 0 0 39 0 0 0 0 0 1 252
1 0 0 1 0 0 0 0 0 0 0 0 0 0 0 0 0 0 0 0 0 0 1 0 0 0 0 0 0 0 0 0 0 0 0 0 0 56 47 3 0 0 0 2 139
0 0 0 0 0 0 0 0 0 0 0 0 0 0 0 0 0 0 0 0 0 0 0 2 0 0 0 0 0 0 0 0 0 0 0 0 0 40 98 75 2 0 4 18 54
0 0 0 0 0 0 0 0 0 0 0 0 0 0 0 0 0 0 0 0 0 0 0 0 0 0 0 0 0 0 0 0 0 0 0 0 0 0 25 87 64 0 3 14 20
0 0 0 0 0 0 0 0 0 0 0 0 0 0 0 0 1 5 0 0 0 0 0 0 0 0 0 0 0 0 0 0 0 0 0 5 0 0 2 0 3 0 0 0 26
0 0 0 0 0 0 0 0 0 0 0 0 0 0 0 0 0 0 0 0 0 0 0 0 0 0 0 0 0 0 19 1 1 0 0 0 0 0 2 0 0 0 0 0 0
0 0 0 0 0 0 0 0 0 0 0 0 0 0 0 0 0 0 0 0 0 0 0 0 0 0 0 0 0 33 0 0 22 0 0 0 0 0 0 0 0 0 0 0 0
0 0 0 0 0 0 0 0 0 0 0 0 0 0 0 0 0 0 0 0 0 0 0 0 0 0 0 0 25 10 0 0 0 0 0 0 0 0 0 0 0 4 0 0 0
0 0 0 0 0 0 0 0 0 0 0 0 0 0 0 0 0 0 0 0 0 0 0 0 0 0 0 0 0 0 0 0 0 0 0 0 0 0 0 0 0 18 1 3 0
0 0 0 0 0 0 0 0 0 0 0 0 0 0 0 0 0 0 0 0 0 0 0 0 0 0 0 2 3 0 0 0 0 0 0 0 0 0 0 1 0 3 0 0 2
0 0 0 0 0 0 0 0 0 0 0 0 0 0 0 0 0 0 0 0 0 0 0 0 4 0 0 2 6 0 0 1 0 0 0 3 0 2 1 19 13 13 0 0 35
0 0 0 0 0 0 0 0 0 0 0 0 0 0 0 0 0 0 0 0 0 0 0 0 0 1 0 0 0 0 0 0 0 2 0 3 0 1 13 5 3 12 9 0 32
0 0 0 0 0 0 0 0 0 0 0 0 0 0 0 0 0 0 0 0 0 0 0 0 0 0 1 0 0 1 0 1 0 0 24 0 0 0 0 1 0 2 0 24 64
0 0 0 0 0 0 0 0 0 0 0 0 0 0 0 0 0 0 0 0 0 0 0 0 0 1 1 0 0 0 0 0 0 0 0 2 0 0 0 3 0 25 30 92 86
0 0 0 0 0 0 0 0 0 0 0 0 0 0 0 0 0 0 0 0 0 0 0 0 0 0 0 0 0 0 0 0 0 0 0 0 0 0 0 0 17 38 65 103 123
0 0 0 0 0 0 0 0 0 0 0 0 0 0 0 0 0 0 0 0 0 0 0 0 0 0 0 0 0 0 0 0 0 0 3 0 0 0 4 12 3 50 151 138 123
0 0 0 0 0 0 0 0 0 0 0 0 0 0 0 0 0 0 0 0 0 0 0 0 0 0 0 0 0 0 0 0 0 0 0 0 3 10 53 24 7 4 80 145 104
0 0 0 0 0 0 0 0 0 0 0 0 0 0 0 0 0 0 0 0 0 0 0 0 0 0 0 0 0 0 0 0 0 0 0 0 0 0 0 0 0 0 12 33 82

GFSSW_con_mucape_243.txt.gz
CAPE
5 5 5 5 9 11 12 16 21 22 21 27 27 29 33 25 24 0 0 15 16 55 26 22 7 3 33 23 54 156 124 36 2 77 1 3 7 3 5 2 46 189 725 1235 1569
4 6 7 5 6 8 14 15 14 17 20 25 27 23 22 25 0 0 18 97 130 96 11 0 1 0 23 52 30 143 73 4 2 56 49 56 62 240 76 21 131 494 743 1358 1639
3 5 7 6 7 6 8 9 11 16 22 22 20 14 20 4 0 4 38 87 78 33 48 38 5 12 23 42 49 51 20 0 40 65 100 100 49 27 45 51 20 26 471 1318 1448
3 5 4 7 6 6 6 8 10 15 20 16 12 15 3 0 0 0 61 76 98 9 0 0 11 38 28 35 39 57 25 28 73 110 73 80 7 3 76 35 1 0 207 963 1138
2 3 6 7 7 4 5 5 10 15 9 9 13 1 0 0 0 0 53 2 0 0 6 5 16 9 11 33 44 33 16 61 72 78 82 56 14 0 9 22 5 19 527 833 1037
2 4 3 5 5 3 2 1 5 8 0 0 3 0 0 0 0 0 0 0 0 0 19 15 40 0 3 16 36 7 25 11 23 38 88 44 4 0 15 17 12 68 116 326 655
4 2 5 6 3 1 0 0 1 0 0 0 0 0 0 0 0 0 0 0 0 0 4 30 18 0 0 6 12 4 25 23 1 8 46 35 0 0 0 10 13 51 155 156 225
4 2 3 3 3 1 0 0 0 0 0 0 0 0 0 0 0 0 0 0 0 20 25 30 22 10 0 0 6 27 9 74 0 0 45 4 0 0 4 0 12 4 68 89 92
2 2 2 1 2 0 0 0 0 0 0 0 0 0 0 0 0 0 0 0 1 23 24 62 13 0 0 0 0 0 0 5 1 0 49 0 0 0 0 0 0 2 6 56 47
1 0 0 0 2 0 0 0 0 0 0 0 0 0 0 0 0 0 0 0 1 26 4 8 0 0 0 0 0 0 0 0 0 0 16 0 0 0 20 0 0 0 15 4 21
0 0 0 0 0 0 0 0 0 0 0 0 0 0 0 0 0 0 0 0 0 0 0 0 0 0 0 0 0 0 0 0 0 3 0 0 0 0 0 0 0 0 10 4 56
0 0 0 0 0 0 0 0 0 0 0 0 0 0 0 0 0 0 0 0 0 0 0 0 0 0 0 0 0 0 0 0 0 0 0 0 0 0 0 0 0 0 0 0 26
0 0 0 0 0 0 0 0 0 0 0 0 0 0 0 0 0 0 0 0 0 0 0 0 0 0 0 0 0 0 0 0 0 0 2 0 0 0 8 65 5 0 0 0 3
0 0 0 0 0 0 0 0 0 0 0 0 0 0 0 0 0 0 0 0 0 0 0 0 0 0 1 0 0 0 0 0 0 0 0 5 0 0 0 0 0 0 0 0 0
0 0 0 0 0 0 0 0 0 0 0 0 0 0 0 0 0 0 0 0 0 0 0 0 0 0 0 0 0 0 16 0 0 0 0 0 0 0 0 0 0 0 0 0 0
0 0 0 0 0 0 0 0 0 0 0 0 0 0 0 0 0 0 0 0 0 0 0 0 0 0 0 0 0 12 9 15 13 0 0 0 0 0 0 0 0 0 8 0 0
0 0 0 0 0 0 0 0 0 0 0 0 0 0 0 0 0 0 0 0 0 0 0 0 0 0 0 0 5 5 0 0 0 0 0 0 0 0 0 0 0 12 22 12 0
0 0 0 0 0 0 0 0 0 0 0 0 0 0 0 0 0 0 0 0 0 0 0 0 0 0 0 0 0 0 0 0 0 0 0 0 0 0 0 0 0 14 12 3 0
0 0 0 0 0 0 0 0 0 0 0 0 0 0 0 0 0 0 0 0 0 0 0 0 0 0 0 0 0 0 0 10 0 0 0 0 0 4 0 0 0 3 0 0 0
0 0 0 0 0 0 0 0 0 0 0 0 0 0 0 0 0 0 0 0 0 0 0 0 0 0 0 0 10 0 0 0 0 0 0 0 0 0 0 0 0 0 0 0 4
0 0 0 0 0 0 0 0 0 0 0 0 0 0 0 0 0 0 0 0 0 0 0 0 0 0 0 0 0 0 0 0 0 0 0 0 0 0 0 0 0 0 0 4 10
0 0 0 0 0 0 0 0 0 0 0 0 0 0 0 0 0 0 0 0 0 0 0 0 0 8 0 0 0 25 0 0 0 0 2 0 0 0 0 0 0 0 0 0 29
0 0 0 0 0 0 0 0 0 0 0 0 0 0 0 0 0 0 0 0 0 0 0 0 0 0 0 6 0 0 0 1 0 1 0 0 0 1 9 0 1 4 9 14 38
0 0 0 0 0 0 0 0 0 0 0 0 0 0 0 0 0 0 0 0 0 0 0 0 0 0 0 0 0 0 0 4 2 0 0 0 0 2 0 15 17 24 14 42 46
0 0 0 0 0 0 0 0 0 0 0 0 0 0 0 0 0 0 0 0 0 0 0 0 0 0 0 0 0 0 0 1 6 1 0 0 0 0 0 41 30 25 95 118 74
0 0 0 0 0 0 0 0 0 0 0 0 0 0 0 0 0 0 0 0 0 0 0 0 0 0 0 0 0 0 0 0 0 0 0 0 0 0 3 69 38 46 71 125 133
0 0 0 0 0 0 0 0 0 0 0 0 0 0 0 0 0 0 0 0 0 0 0 0 0 0 0 0 0 0 0 0 0 0 0 0 0 0 3 49 50 47 31 88 67

GFSSW_con_mucape_249.txt.gz
CAPE
5 5 5 5 6 5 8 7 11 12 8 6 17 10 7 0 0 0 0 23 56 53 23 0 0 2 0 44 57 59 66 50 15 0 0 27 73 122 76 34 6 50 269 385 942
3 4 4 3 6 4 6 7 10 0 13 15 9 6 0 0 0 0 9 52 39 97 0 0 0 0 0 8 59 65 41 3 2 12 6 18 149 178 240 92 19 1 113 76 798
2 3 3 3 4 3 4 5 6 0 8 5 2 2 0 0 0 0 0 55 51 11 0 0 0 0 5 10 31 39 9 7 16 24 0 0 61 191 236 118 30 20 0 27 667
2 2 1 1 1 0 1 3 0 2 1 0 0 0 0 0 0 0 22 56 46 0 0 0 0 20 4 3 26 27 0 2 0 7 16 50 73 126 182 176 198 100 28 17 125
1 0 0 0 0 0 0 0 0 0 0 0 0 0 0 0 0 0 0 0 0 0 0 0 0 7 9 0 0 0 3 25 34 50 44 31 13 94 110 190 113 84 47 25 74
0 0 0 0 0 0 0 0 0 0 0 0 0 0 0 0 0 0 0 0 0 0 0 0 1 12 6 2 0 0 28 19 5 0 79 27 34 143 57 54 49 74 45 21 89
0 0 0 0 0 0 0 0 0 0 0 0 0 0 0 0 0 0 0 0 0 0 0 0 0 3 0 0 0 0 15 4 1 1 27 52 48 2 45 2 0 85 39 5 32
0 0 0 0 0 0 0 0 0 0 0 0 0 0 0 0 0 0 0 0 0 0 0 0 1 2 19 0 0 71 16 1 10 12 41 41 16 1 65 26 0 15 23 0 33
0 0 0 0 0 0 0 0 0 0 0 0 0 0 0 0 0 0 0 0 0 0 0 0 0 0 0 0 0 0 0 0 0 2 29 8 3 60 90 42 0 14 16 2 118
0 0 0 0 0 0 0 0 0 0 0 0 0 0 0 0 0 0 0 0 0 0 0 0 0 0 0 0 0 0 0 0 4 4 10 22 3 69 61 3 0 7 21 3 273
0 0 0 0 0 0 0 0 0 0 0 0 0 0 0 0 0 0 0 0 0 0 0 0 0 0 0 0 0 0 0 0 1 7 5 0 4 34 47 0 0 37 18 28 110
0 0 0 0 0 0 0 0 0 0 0 0 0 0 0 0 0 0 0 0 0 0 0 0 0 0 0 0 0 0 0 0 0 0 3 0 0 0 46 0 0 0 26 27 115
0 0 0 0 0 0 0 0 0 0 0 0 0 0 0 0 0 0 0 0 0 0 0 0 0 0 0 0 0 0 0 0 0 0 0 0 0 0 41 12 0 0 1 19 70
0 0 0 0 0 0 0 0 0 0 0 0 0 0 0 0 0 0 0 0 0 0 0 0 0 0 0 0 0 0 0 0 0 0 0 0 0 0 17 0 0 0 9 57 87
0 0 0 0 0 0 0 0 0 0 0 0 0 0 0 0 0 0 0 0 0 0 0 0 0 0 0 0 0 0 2 2 0 0 0 0 0 0 0 0 0 0 0 0 3
0 0 0 0 0 0 0 0 0 0 0 0 0 0 0 0 0 0 0 0 0 0 0 0 0 0 0 0 0 0 4 0 0 0 0 0 0 0 0 0 0 0 0 0 0
0 0 0 0 0 0 0 0 0 0 0 0 0 0 0 0 0 0 0 0 0 0 0 0 0 0 0 0 0 0 0 0 0 0 0 0 0 0 0 0 0 0 0 0 0
0 0 0 0 0 0 0 0 0 0 0 0 0 0 0 0 0 0 0 0 0 0 0 0 0 0 0 0 0 0 0 0 0 0 0 0 0 0 2 0 0 0 0 55 55
0 0 0 0 0 0 0 0 0 0 0 0 0 0 0 0 0 0 0 0 0 0 0 0 0 0 0 0 0 0 0 0 0 0 0 0 0 0 0 0 0 0 1 0 0
0 0 0 0 0 0 0 0 0 0 0 0 0 0 0 0 0 0 0 0 0 0 0 0 0 0 0 1 0 0 0 0 0 0 0 0 0 0 1 1 3 38 35 1 0
0 0 0 0 0 0 0 0 0 0 0 0 0 0 0 0 0 0 0 0 0 0 0 0 0 0 0 0 0 0 0 0 0 0 0 0 0 0 2 0 3 11 15 34 10
0 0 0 0 0 0 0 0 0 0 0 0 0 0 0 0 0 0 0 0 0 0 0 0 0 0 0 0 0 0 0 0 0 0 0 0 1 6 7 2 0 2 4 1 0
0 0 0 0 0 0 0 0 0 0 0 0 0 0 0 0 0 0 0 0 0 0 0 0 0 0 0 0 0 0 0 3 0 1 0 3 1 0 0 16 0 0 6 1 2
0 0 0 0 0 0 0 0 0 0 0 0 0 0 0 0 0 0 0 0 0 0 0 0 0 0 0 0 0 0 0 6 2 0 0 0 0 6 1 0 3 2 1 9 35
0 0 0 0 0 0 0 0 0 0 0 0 0 0 0 0 0 0 0 0 0 0 0 0 0 0 0 0 0 0 0 0 4 2 0 0 0 1 5 0 0 15 17 53 34
0 0 0 0 0 0 0 0 0 0 0 0 0 0 0 0 0 0 0 0 0 0 0 0 0 0 0 0 0 0 0 2 4 3 0 0 0 0 0 0 0 29 50 70 33
0 0 0 0 0 0 0 0 0 0 0 0 0 0 0 0 0 0 0 0 0 0 0 0 0 0 0 0 0 0 0 0 3 4 0 0 0 0 0 0 0 26 52 31 65

GFSSW_con_mucape_252.txt.gz
CAPE
2 3 2 3 3 3 5 7 0 0 0 10 5 3 0 0 0 0 0 34 30 42 0 0 0 0 0 9 21 33 136 183 28 60 53 85 91 28 62 0 25 63 29 141 453
1 1 0 1 1 2 4 0 0 0 0 2 0 0 0 0 0 0 0 27 20 38 0 0 0 0 1 1 50 84 61 46 77 37 4 17 62 123 96 37 19 34 82 29 0
1 0 0 0 0 1 1 0 0 0 0 0 0 0 0 0 0 0 0 0 0 3 0 0 0 3 15 44 40 53 47 7 5 33 42 0 7 48 42 82 19 73 128 32 8
0 0 0 0 0 0 0 0 0 0 0 0 0 0 0 0 0 0 0 0 0 0 0 0 1 9 43 4 33 4 13 22 18 3 22 20 32 5 50 76 224 233 118 63 26
0 0 0 0 0 0 0 0 0 0 0 0 0 0 0 0 0 0 0 0 0 0 0 0 1 18 15 40 29 2 8 1 17 21 0 0 0 0 46 142 112 61 100 110 45
0 0 0 0 0 0 0 0 0 0 0 0 0 0 0 0 0 0 0 0 0 0 0 0 1 21 45 38 3 0 0 39 24 5 20 7 18 58 24 109 119 43 60 4 15
0 0 0 0 0 0 0 0 0 0 0 0 0 0 0 0 0 0 0 0 0 0 0 0 0 34 29 0 0 0 25 40 66 29 16 98 55 29 21 89 5 18 29 5 0
0 0 0 0 0 0 0 0 0 0 0 0 0 0 0 0 0 0 0 0 0 0 0 0 0 3 29 0 0 30 9 56 67 62 15 58 0 62 78 72 0 3 22 1 0
0 0 0 0 0 0 0 0 0 0 0 0 0 0 0 0 0 0 0 0 0 0 0 0 0 0 17 0 6 20 45 29 15 73 54 39 31 61 79 69 0 0 5 3 0
0 0 0 0 0 0 0 0 0 0 0 0 0 0 0 0 0 0 0 0 0 0 0 0 0 31 40 47 0 0 0 9 47 7 29 46 52 19 40 47 0 0 0 6 11
0 0 0 0 0 0 0 0 0 0 0 0 0 0 0 0 0 0 0 0 0 0 0 0 2 0 0 26 0 0 0 0 0 4 14 33 34 72 58 60 9 0 2 7 31
0 0 0 0 0 0 0 0 0 0 0 0 0 0 0 0 0 0 0 0 0 0 0 0 0 0 0 10 0 0 0 0 2 0 4 29 23 1 19 0 0 0 1 13 13
0 0 0 0 0 0 0 0 0 0 0 0 0 0 0 0 0 0 0 0 0 0 0 0 0 0 0 11 0 0 0 0 1 0 20 17 50 0 4 17 0 0 20 23 2
0 0 0 0 0 0 0 0 0 0 0 0 0 0 0 0 0 0 0 0 0 0 0 0 0 0 0 0 0 0 0 0 0 0 0 0 0 0 10 0 0 0 7 42 13
0 0 0 0 0 0 0 0 0 0 0 0 0 0 0 0 0 0 0 0 0 0 0 0 0 0 0 0 0 0 0 0 0 0 0 0 0 0 18 0 0 0 0 1 34
0 0 0 0 0 0 0 0 0 0 0 0 0 0 0 0 0 0 0 0 0 0 0 0 0 0 0 1 0 0 0 31 0 0 0 0 0 0 0 0 0 0 6 0 0
0 0 0 0 0 0 0 0 0 0 0 0 0 0 0 0 0 0 0 0 0 0 0 0 0 0 0 0 0 0 0 0 0 0 0 0 0 0 0 0 0 0 0 0 24
0 0 0 0 0 0 0 0 0 0 0 0 0 0 0 0 0 0 0 0 0 0 0 0 0 0 0 0 0 0 0 0 0 0 0 0 0 0 2 7 0 0 0 0 1
0 0 0 0 0 0 0 0 0 0 0 0 0 0 0 0 0 0 0 0 0 0 0 0 0 0 0 0 0 0 0 0 0 0 0 0 0 0 0 0 0 0 0 0 11
0 0 0 0 0 0 0 0 0 0 0 0 0 0 0 0 0 0 0 0 0 0 0 0 0 0 0 0 0 0 0 0 0 0 0 0 0 0 0 0 0 0 0 0 2
0 0 0 0 0 0 0 0 0 0 0 0 0 0 0 0 0 0 0 0 0 0 0 0 0 0 0 0 0 0 0 0 0 0 0 0 0 10 1 0 0 0 4 0 0
0 0 0 0 0 0 0 0 0 0 0 0 0 0 0 0 0 0 0 0 0 0 0 0 0 0 0 0 0 0 0 0 0 0 0 0 0 2 0 3 1 0 11 60 7
0 0 0 0 0 0 0 0 0 0 0 0 0 0 0 0 0 0 0 0 0 0 0 0 0 0 0 0 0 1 0 0 0 0 0 0 0 0 2 3 0 0 3 1 0
0 0 0 0 0 0 0 0 0 0 0 0 0 0 0 0 0 0 0 0 0 0 0 0 0 0 0 0 0 1 0 0 0 0 0 0 0 12 4 6 2 0 8 16 0
0 0 0 0 0 0 0 0 0 0 0 0 0 0 0 0 0 0 0 0 0 0 0 0 0 0 0 0 0 0 0 0 1 0 0 0 0 3 9 6 3 4 9 29 44
0 0 0 0 0 0 0 0 0 0 0 0 0 0 0 0 0 0 0 0 0 0 0 0 0 0 0 0 0 0 0 0 2 0 0 0 0 0 0 0 1 9 14 14 38
0 0 0 0 0 0 0 0 0 0 0 0 0 0 0 0 0 0 0 0 0 0 0 0 0 0 0 0 0 0 0 1 0 0 0 1 0 0 0 0 0 1 9 18 32

GFSSW_con_mucape_258.txt.gz
CAPE
1 0 0 0 0 0 0 0 0 0 0 0 0 0 0 0 0 0 0 0 0 1 0 0 0 0 0 0 23 13 0 0 0 1 0 8 7 0 0 24 31 14 37 27 20
0 0 0 0 0 0 0 0 0 0 0 0 0 0 0 0 0 0 0 0 0 0 0 0 0 0 0 0 34 68 0 0 0 15 9 9 26 1 0 1 22 74 4 41 14
0 0 0 0 0 0 0 0 0 0 0 0 0 0 0 0 0 0 0 0 0 0 0 0 0 0 0 7 10 12 0 4 0 0 27 17 3 2 0 0 9 4 40 31 19
0 0 0 0 0 0 0 0 0 0 0 0 0 0 0 0 0 0 0 0 0 0 0 0 0 0 0 0 16 7 16 5 1 0 2 0 0 0 0 0 0 0 0 1 26
0 0 0 0 0 0 0 0 0 0 0 0 0 0 0 0 0 0 0 0 0 0 0 0 0 0 0 0 15 2 2 14 5 0 0 0 0 0 0 0 0 0 0 0 3
0 0 0 0 0 0 0 0 0 0 0 0 0 0 0 0 0 0 0 0 0 0 0 0 0 0 0 6 4 0 0 0 0 0 0 0 0 0 0 0 0 0 20 51 19
0 0 0 0 0 0 0 0 0 0 0 0 0 0 0 0 0 0 0 0 0 0 0 0 0 0 0 0 0 0 0 0 0 0 3 27 1 0 0 0 0 0 8 2 0
0 0 0 0 0 0 0 0 0 0 0 0 0 0 0 0 0 0 0 0 0 0 0 0 0 0 0 1 0 1 2 45 9 27 38 6 0 0 3 0 0 76 37 2 0
0 0 0 0 0 0 0 0 0 0 0 0 0 0 0 0 0 0 0 0 0 0 0 0 0 0 7 5 0 2 0 0 0 6 28 25 0 44 70 71 1 35 24 18 0
0 0 0 0 0 0 0 0 0 0 0 0 0 0 0 0 0 0 0 0 0 0 0 0 1 7 0 0 0 0 0 0 0 1 0 32 2 24 85 61 58 47 5 0 0
0 0 0 0 0 0 0 0 0 0 0 0 0 0 0 0 0 0 0 0 0 0 0 0 0 0 0 0 7 0 0 0 0 0 1 27 9 49 54 89 84 8 0 0 0
0 0 0 0 0 0 0 0 0 0 0 0 0 0 0 0 0 0 0 0 0 0 0 0 0 0 2 18 6 0 0 0 0 0 1 0 17 55 39 0 0 19 0 0 0
0 0 0 0 0 0 0 0 0 0 0 0 0 0 0 0 0 0 0 0 0 0 0 0 0 0 0 6 0 0 0 0 0 0 0 0 0 30 41 9 16 0 2 5 0
0 0 0 0 0 0 0 0 0 0 0 0 0 0 0 0 0 0 0 0 0 0 0 0 0 0 0 0 0 0 0 0 0 0 4 2 26 13 0 0 11 0 3 2 11
0 0 0 0 0 0 0 0 0 0 0 0 0 0 0 0 0 0 0 0 0 0 0 0 0 0 0 0 0 0 0 4 0 0 0 4 4 9 2 20 0 0 1 3 12
0 0 0 0 0 0 0 0 0 0 0 0 0 0 0 0 0 0 0 0 0 0 0 0 0 0 0 0 0 0 0 0 0 0 0 0 0 1 13 0 0 0 0 5 19
0 0 0 0 0 0 0 0 0 0 0 0 0 0 0 0 0 0 0 0 0 0 0 0 0 0 0 0 0 0 0 0 0 0 0 4 0 0 0 0 0 0 0 13 9
0 0 0 0 0 0 0 0 0 0 0 0 0 0 0 0 0 0 0 0 0 0 0 0 0 0 0 0 0 0 0 0 0 0 0 2 0 0 0 0 0 0 0 1 49
0 0 0 0 0 0 0 0 0 0 0 0 0 0 0 0 0 0 0 0 0 0 0 0 0 0 0 0 0 0 0 0 0 0 0 0 0 1 0 0 0 0 0 0 11
0 0 0 0 0 0 0 0 0 0 0 0 0 0 0 0 0 0 0 0 0 0 0 0 0 0 0 0 0 0 0 0 0 0 0 0 0 0 0 0 0 0 0 0 29
0 0 0 0 0 0 0 0 0 0 0 0 0 0 0 0 0 0 0 0 0 0 0 0 0 0 0 0 0 0 0 0 0 0 0 0 0 2 2 0 0 0 0 0 19
0 0 0 0 0 0 0 0 0 0 0 0 0 0 0 0 0 0 0 0 0 0 0 0 0 0 0 0 0 0 0 0 0 0 0 4 0 0 3 3 2 0 0 0 0
0 0 0 0 0 0 0 0 0 0 0 0 0 0 0 0 0 0 0 0 0 0 0 0 0 0 0 0 0 0 0 0 0 0 0 0 0 0 0 1 0 0 0 0 0
0 0 0 0 0 0 0 0 0 0 0 0 0 0 0 0 0 0 0 0 0 0 0 0 0 0 0 0 0 0 0 0 0 0 0 0 0 0 0 0 0 0 0 0 0
0 0 0 0 0 0 0 0 0 0 0 0 0 0 0 0 0 0 0 0 0 0 0 0 0 0 0 0 0 0 0 0 0 0 0 0 0 0 0 2 0 0 0 0 0
0 0 0 0 0 0 0 0 0 0 0 0 0 0 0 0 0 0 0 0 0 0 0 0 0 0 0 0 0 0 0 0 0 0 0 0 0 0 0 0 4 0 0 0 0
0 0 0 0 0 0 0 0 0 0 0 0 0 0 0 0 0 0 0 0 0 0 0 0 0 0 0 0 0 0 0 0 0 0 0 0 0 0 0 0 0 0 4 0 0